When you browse on this site, cookies collect data to enhance your experience and personalize the content and advertising you see.
Visit our Privacy Policy to learn more. By continuing to use the site, you agree to this use of cookies and data.
  • En España
  • Lista de países
  • Para 7 días
  • Temperatura del agua
  • El tiempo en el mapa
  • Informadores
  • user-avatar
    Iniciar sesión

    Tiempo cada hora Oksford

    Hoy, 5 Diciembre, Jueves

    Tiempo Temperatura Precipitaciones Viento Presión Humedad
    00:00 +2°C° 0 mm 2 mps 760 mmHg 94%
    01:00 +2°C° 0 mm 2 mps 759 mmHg 94%
    02:00 +2°C° 0 mm 2 mps 759 mmHg 94%
    03:00 +1°C° 0 mm 3 mps 758 mmHg 94%
    04:00 +3°C° 0 mm 2 mps 759 mmHg 95%
    05:00 +3°C° 0 mm 2 mps 759 mmHg 95%
    06:00 +3°C° 0 mm 2 mps 760 mmHg 95%
    07:00 +2°C° 0 mm 3 mps 759 mmHg 96%
    08:00 +2°C° 0 mm 3 mps 759 mmHg 96%
    09:00 +1°C° 0 mm 4 mps 759 mmHg 96%
    10:00 +4°C° 0 mm 4 mps 759 mmHg 91%
    11:00 +5°C° 0 mm 5 mps 759 mmHg 87%
    12:00 +5°C° 0 mm 6 mps 758 mmHg 82%
    13:00 +5°C° 0 mm 6 mps 757 mmHg 82%
    14:00 +5°C° 0 mm 6 mps 757 mmHg 83%
    15:00 +5°C° 0 mm 6 mps 756 mmHg 83%
    16:00 +5°C° 0 mm 7 mps 755 mmHg 83%
    17:00 +5°C° 0 mm 7 mps 755 mmHg 83%
    18:00 +5°C° 0 mm 8 mps 755 mmHg 84%
    19:00 +6°C° 0 mm 8 mps 754 mmHg 84%
    20:00 +6°C° 0 mm 8 mps 754 mmHg 84%
    21:00 +6°C° 0 mm 8 mps 754 mmHg 85%
    22:00 +7°C° 0 mm 8 mps 753 mmHg 86%
    23:00 +7°C° 0 mm 8 mps 753 mmHg 88%

    Mañana, 6 Diciembre, Viernes

    Tiempo Temperatura Precipitaciones Viento Presión Humedad
    00:00 +9°C° 0 mm 8 mps 752 mmHg 89%
    01:00 +9°C° 0.1 mm 8 mps 751 mmHg 90%
    02:00 +9°C° 0.1 mm 8 mps 751 mmHg 90%
    03:00 +9°C° 0.1 mm 8 mps 750 mmHg 90%
    04:00 +10°C° 0.5 mm 8 mps 750 mmHg 91%
    05:00 +10°C° 0.5 mm 8 mps 750 mmHg 92%
    06:00 +10°C° 0.5 mm 8 mps 750 mmHg 93%
    07:00 +10°C° 0.2 mm 8 mps 749 mmHg 92%
    08:00 +10°C° 0.2 mm 7 mps 749 mmHg 92%
    09:00 +11°C° 0.2 mm 7 mps 748 mmHg 92%
    10:00 +11°C° 0.1 mm 8 mps 748 mmHg 90%
    11:00 +11°C° 0.1 mm 8 mps 747 mmHg 89%
    12:00 +11°C° 0.1 mm 8 mps 747 mmHg 87%
    13:00 +11°C° 0.3 mm 8 mps 746 mmHg 85%
    14:00 +10°C° 0.3 mm 9 mps 746 mmHg 82%
    15:00 +9°C° 0.3 mm 10 mps 745 mmHg 80%
    16:00 +8°C° 0.1 mm 9 mps 746 mmHg 81%
    17:00 +7°C° 0.1 mm 8 mps 747 mmHg 83%
    18:00 +7°C° 0.1 mm 6 mps 748 mmHg 85%
    19:00 +7°C° 0 mm 6 mps 748 mmHg 86%
    20:00 +5°C° 0 mm 6 mps 749 mmHg 87%
    21:00 +6°C° 0 mm 5 mps 750 mmHg 88%
    22:00 +6°C° 0 mm 5 mps 751 mmHg 89%
    23:00 +6°C° 0 mm 5 mps 751 mmHg 90%

    Pasado mañana, 7 Diciembre, Sábado

    Tiempo Temperatura Precipitaciones Viento Presión Humedad
    00:00 +6°C° 0 mm 5 mps 752 mmHg 91%
    01:00 +5°C° 0 mm 5 mps 752 mmHg 91%
    02:00 +5°C° 0 mm 5 mps 752 mmHg 91%
    03:00 +5°C° 0 mm 5 mps 752 mmHg 91%
    04:00 +5°C° 0 mm 5 mps 753 mmHg 91%
    05:00 +5°C° 0 mm 5 mps 753 mmHg 91%
    06:00 +5°C° 0 mm 5 mps 753 mmHg 91%
    07:00 +5°C° 0 mm 4 mps 754 mmHg 91%
    08:00 +5°C° 0 mm 4 mps 754 mmHg 91%
    09:00 +5°C° 0 mm 4 mps 755 mmHg 91%
    10:00 +6°C° 0 mm 4 mps 755 mmHg 88%
    11:00 +7°C° 0 mm 5 mps 755 mmHg 85%
    12:00 +8°C° 0 mm 5 mps 755 mmHg 83%
    13:00 +8°C° 0 mm 5 mps 754 mmHg 85%
    14:00 +8°C° 0 mm 4 mps 754 mmHg 87%
    15:00 +7°C° 0 mm 4 mps 753 mmHg 90%
    16:00 +7°C° 0 mm 5 mps 753 mmHg 91%
    17:00 +7°C° 0 mm 5 mps 753 mmHg 92%
    18:00 +6°C° 0 mm 5 mps 752 mmHg 93%
    19:00 +7°C° 0 mm 6 mps 751 mmHg 92%
    20:00 +8°C° 0 mm 7 mps 751 mmHg 92%
    21:00 +7°C° 0 mm 8 mps 750 mmHg 91%
    22:00 +8°C° 0.8 mm 9 mps 749 mmHg 91%
    23:00 +8°C° 0.8 mm 10 mps 747 mmHg 92%

    8 Diciembre, Domingo

    Tiempo Temperatura Precipitaciones Viento Presión Humedad
    00:00 +8°C° 0.8 mm 11 mps 746 mmHg 92%
    01:00 +9°C° 0.7 mm 10 mps 746 mmHg 92%
    02:00 +11°C° 0.7 mm 9 mps 745 mmHg 91%
    03:00 +12°C° 0.7 mm 8 mps 745 mmHg 90%
    04:00 +10°C° 0 mm 8 mps 745 mmHg 87%
    05:00 +8°C° 0 mm 7 mps 746 mmHg 83%
    06:00 +5°C° 0 mm 7 mps 746 mmHg 80%
    07:00 +5°C° 0 mm 7 mps 746 mmHg 81%
    08:00 +5°C° 0 mm 6 mps 747 mmHg 81%
    09:00 +5°C° 0 mm 6 mps 747 mmHg 82%
    10:00 +5°C° 0.3 mm 7 mps 747 mmHg 83%
    11:00 +6°C° 0.3 mm 9 mps 746 mmHg 83%
    12:00 +6°C° 0.3 mm 10 mps 746 mmHg 84%
    13:00 +6°C° 0.6 mm 10 mps 745 mmHg 81%
    14:00 +6°C° 0.6 mm 9 mps 745 mmHg 78%
    15:00 +5°C° 0.6 mm 9 mps 744 mmHg 75%
    16:00 +5°C° 0 mm 9 mps 744 mmHg 76%
    17:00 +4°C° 0 mm 8 mps 744 mmHg 78%
    18:00 +4°C° 0 mm 8 mps 744 mmHg 79%
    19:00 +3°C° 0 mm 10 mps 744 mmHg 80%
    20:00 +3°C° 0 mm 11 mps 743 mmHg 80%
    21:00 +4°C° 0 mm 12 mps 743 mmHg 81%
    22:00 +4°C° 0.1 mm 12 mps 742 mmHg 81%
    23:00 +4°C° 0.1 mm 13 mps 742 mmHg 81%

    9 Diciembre, Lunes

    Tiempo Temperatura Precipitaciones Viento Presión Humedad
    00:00 +4°C° 0.1 mm 13 mps 741 mmHg 81%
    01:00 +4°C° 0.3 mm 13 mps 741 mmHg 79%
    02:00 +4°C° 0.3 mm 13 mps 741 mmHg 76%
    03:00 +5°C° 0.3 mm 13 mps 741 mmHg 74%
    04:00 +5°C° 0.1 mm 12 mps 742 mmHg 73%
    05:00 +5°C° 0.1 mm 12 mps 744 mmHg 72%
    06:00 +6°C° 0.1 mm 11 mps 745 mmHg 72%
    07:00 +6°C° 0 mm 11 mps 747 mmHg 72%
    08:00 +6°C° 0 mm 10 mps 748 mmHg 73%
    09:00 +6°C° 0 mm 9 mps 750 mmHg 74%
    10:00 +6°C° 0 mm 9 mps 752 mmHg 73%
    11:00 +7°C° 0 mm 9 mps 753 mmHg 72%
    12:00 +7°C° 0 mm 8 mps 754 mmHg 70%
    13:00 +6°C° 0 mm 7 mps 755 mmHg 73%
    14:00 +7°C° 0 mm 6 mps 755 mmHg 76%
    15:00 +7°C° 0 mm 5 mps 756 mmHg 78%
    16:00 +6°C° 0 mm 5 mps 756 mmHg 81%
    17:00 +5°C° 0 mm 5 mps 757 mmHg 84%
    18:00 +5°C° 0 mm 4 mps 757 mmHg 87%
    19:00 +5°C° 0 mm 5 mps 757 mmHg 88%
    20:00 +6°C° 0 mm 5 mps 757 mmHg 89%
    21:00 +5°C° 0 mm 6 mps 757 mmHg 91%
    22:00 +5°C° 0 mm 6 mps 756 mmHg 89%
    23:00 +5°C° 0 mm 6 mps 755 mmHg 87%

    10 Diciembre, Martes

    Tiempo Temperatura Precipitaciones Viento Presión Humedad
    00:00 +6°C° 0 mm 7 mps 754 mmHg 86%
    01:00 +6°C° 0.4 mm 7 mps 753 mmHg 88%
    02:00 +7°C° 0.4 mm 8 mps 752 mmHg 90%
    03:00 +8°C° 0.4 mm 9 mps 751 mmHg 91%
    04:00 +8°C° 0.6 mm 9 mps 749 mmHg 92%
    05:00 +8°C° 0.6 mm 9 mps 748 mmHg 92%
    06:00 +8°C° 0.6 mm 9 mps 746 mmHg 92%
    07:00 +10°C° 0.3 mm 9 mps 746 mmHg 92%
    08:00 +11°C° 0.3 mm 9 mps 745 mmHg 91%
    09:00 +12°C° 0.3 mm 9 mps 744 mmHg 90%
    10:00 +12°C° 0.2 mm 10 mps 743 mmHg 90%
    11:00 +12°C° 0.2 mm 10 mps 742 mmHg 89%
    12:00 +12°C° 0.2 mm 11 mps 742 mmHg 89%
    13:00 +12°C° 0.3 mm 11 mps 741 mmHg 87%
    14:00 +12°C° 0.3 mm 11 mps 740 mmHg 86%
    15:00 +13°C° 0.3 mm 12 mps 739 mmHg 85%
    16:00 +12°C° 0.5 mm 12 mps 739 mmHg 84%
    17:00 +10°C° 0.5 mm 12 mps 738 mmHg 84%
    18:00 +9°C° 0.5 mm 11 mps 737 mmHg 83%
    19:00 +8°C° 0.1 mm 11 mps 738 mmHg 83%
    20:00 +7°C° 0.1 mm 12 mps 738 mmHg 82%
    21:00 +7°C° 0.1 mm 12 mps 738 mmHg 82%
    22:00 +6°C° 0.4 mm 11 mps 739 mmHg 83%
    23:00 +5°C° 0.4 mm 10 mps 739 mmHg 84%
    Mostrar más